When you browse on this site, cookies collect data to enhance your experience and personalize the content and advertising you see.
Visit our Privacy Policy to learn more. By continuing to use the site, you agree to this use of cookies and data.
  • En España
  • Lista de países
  • Para 7 días
  • Temperatura del agua
  • Mapa Satelital
  • El tiempo en el mapa
  • Informadores
  • user-avatar
    Iniciar sesión

    Tiempo cada hora Kolda

    Hoy, 18 Febrero, Lunes

    Tiempo Temperatura Precipitaciones Viento Presión Humedad
    00:00 +27°C° 0 mm 1 mps 756 mmHg 16%
    01:00 +26°C° 0 mm 1 mps 756 mmHg 17%
    02:00 +25°C° 0 mm 1 mps 756 mmHg 18%
    03:00 +25°C° 0 mm 1 mps 756 mmHg 18%
    04:00 +24°C° 0 mm 1 mps 756 mmHg 18%
    05:00 +24°C° 0 mm 1 mps 756 mmHg 18%
    06:00 +25°C° 0 mm 2 mps 757 mmHg 17%
    07:00 +26°C° 0 mm 2 mps 757 mmHg 16%
    08:00 +27°C° 0 mm 2 mps 757 mmHg 15%
    09:00 +31°C° 0 mm 2 mps 757 mmHg 13%
    10:00 +35°C° 0 mm 2 mps 757 mmHg 10%
    11:00 +39°C° 0 mm 2 mps 757 mmHg 7%
    12:00 +40°C° 0 mm 2 mps 756 mmHg 6%
    13:00 +42°C° 0 mm 2 mps 755 mmHg 6%
    14:00 +43°C° 0 mm 2 mps 754 mmHg 5%
    15:00 +42°C° 0 mm 2 mps 754 mmHg 5%
    16:00 +42°C° 0 mm 2 mps 753 mmHg 6%
    17:00 +42°C° 0 mm 3 mps 753 mmHg 6%
    18:00 +38°C° 0 mm 3 mps 754 mmHg 8%
    19:00 +36°C° 0 mm 2 mps 754 mmHg 9%
    20:00 +32°C° 0 mm 2 mps 755 mmHg 11%
    21:00 +31°C° 0 mm 2 mps 755 mmHg 14%
    22:00 +30°C° 0 mm 3 mps 756 mmHg 18%
    23:00 +29°C° 0 mm 3 mps 756 mmHg 21%

    Mañana, 19 Febrero, Martes

    Tiempo Temperatura Precipitaciones Viento Presión Humedad
    00:00 +28°C° 0 mm 2 mps 756 mmHg 24%
    01:00 +27°C° 0 mm 2 mps 756 mmHg 27%
    02:00 +26°C° 0 mm 2 mps 756 mmHg 30%
    03:00 +25°C° 0 mm 1 mps 756 mmHg 29%
    04:00 +24°C° 0 mm 1 mps 756 mmHg 27%
    05:00 +23°C° 0 mm 1 mps 756 mmHg 26%
    06:00 +25°C° 0 mm 1 mps 756 mmHg 23%
    07:00 +26°C° 0 mm 1 mps 756 mmHg 20%
    08:00 +28°C° 0 mm 1 mps 757 mmHg 17%
    09:00 +31°C° 0 mm 1 mps 757 mmHg 14%
    10:00 +34°C° 0 mm 1 mps 756 mmHg 10%
    11:00 +39°C° 0 mm 2 mps 756 mmHg 7%
    12:00 +40°C° 0 mm 2 mps 755 mmHg 7%
    13:00 +41°C° 0 mm 2 mps 754 mmHg 6%
    14:00 +42°C° 0 mm 2 mps 753 mmHg 6%
    15:00 +41°C° 0 mm 2 mps 753 mmHg 7%
    16:00 +42°C° 0 mm 3 mps 753 mmHg 7%
    17:00 +40°C° 0 mm 3 mps 753 mmHg 8%
    18:00 +38°C° 0 mm 2 mps 753 mmHg 10%
    19:00 +35°C° 0 mm 2 mps 754 mmHg 12%
    20:00 +31°C° 0 mm 2 mps 754 mmHg 14%
    21:00 +31°C° 0 mm 2 mps 755 mmHg 14%
    22:00 +30°C° 0 mm 2 mps 755 mmHg 13%
    23:00 +29°C° 0 mm 2 mps 755 mmHg 13%

    Pasado mañana, 20 Febrero, Miércoles

    Tiempo Temperatura Precipitaciones Viento Presión Humedad
    00:00 +28°C° 0 mm 2 mps 755 mmHg 13%
    01:00 +27°C° 0 mm 1 mps 754 mmHg 13%
    02:00 +27°C° 0 mm 1 mps 754 mmHg 13%
    03:00 +26°C° 0 mm 1 mps 754 mmHg 12%
    04:00 +26°C° 0 mm 1 mps 754 mmHg 11%
    05:00 +26°C° 0 mm 1 mps 754 mmHg 10%
    06:00 +27°C° 0 mm 1 mps 755 mmHg 9%
    07:00 +29°C° 0 mm 1 mps 756 mmHg 9%
    08:00 +30°C° 0 mm 1 mps 756 mmHg 8%
    09:00 +33°C° 0 mm 1 mps 756 mmHg 7%
    10:00 +36°C° 0 mm 1 mps 756 mmHg 7%
    11:00 +40°C° 0 mm 2 mps 756 mmHg 6%
    12:00 +40°C° 0 mm 2 mps 755 mmHg 7%
    13:00 +40°C° 0 mm 2 mps 754 mmHg 7%
    14:00 +40°C° 0 mm 2 mps 754 mmHg 7%
    15:00 +40°C° 0 mm 2 mps 753 mmHg 8%
    16:00 +39°C° 0 mm 3 mps 753 mmHg 8%
    17:00 +38°C° 0 mm 3 mps 753 mmHg 8%
    18:00 +37°C° 0 mm 3 mps 754 mmHg 9%
    19:00 +36°C° 0 mm 3 mps 755 mmHg 10%
    20:00 +35°C° 0 mm 3 mps 755 mmHg 11%
    21:00 +34°C° 0 mm 3 mps 756 mmHg 12%
    22:00 +34°C° 0 mm 2 mps 756 mmHg 13%
    23:00 +32°C° 0 mm 2 mps 756 mmHg 14%

    21 Febrero, Jueves

    Tiempo Temperatura Precipitaciones Viento Presión Humedad
    00:00 +31°C° 0 mm 2 mps 756 mmHg 16%
    01:00 +30°C° 0 mm 2 mps 755 mmHg 17%
    02:00 +29°C° 0 mm 2 mps 755 mmHg 19%
    03:00 +29°C° 0 mm 2 mps 755 mmHg 18%
    04:00 +28°C° 0 mm 2 mps 755 mmHg 18%
    05:00 +27°C° 0 mm 2 mps 755 mmHg 17%
    06:00 +28°C° 0 mm 2 mps 756 mmHg 16%
    07:00 +29°C° 0 mm 2 mps 756 mmHg 15%
    08:00 +30°C° 0 mm 1 mps 757 mmHg 14%
    09:00 +34°C° 0 mm 2 mps 757 mmHg 12%
    10:00 +38°C° 0 mm 2 mps 757 mmHg 10%
    11:00 +41°C° 0 mm 2 mps 757 mmHg 7%
    12:00 +43°C° 0 mm 2 mps 756 mmHg 7%
    13:00 +44°C° 0 mm 1 mps 755 mmHg 7%
    14:00 +46°C° 0 mm 1 mps 754 mmHg 7%
    15:00 +45°C° 0 mm 1 mps 754 mmHg 8%
    16:00 +44°C° 0 mm 1 mps 754 mmHg 8%
    17:00 +43°C° 0 mm 1 mps 754 mmHg 9%
    18:00 +40°C° 0 mm 1 mps 755 mmHg 11%
    19:00 +36°C° 0 mm 1 mps 755 mmHg 13%
    20:00 +33°C° 0 mm 1 mps 756 mmHg 15%
    21:00 +31°C° 0 mm 1 mps 757 mmHg 19%
    22:00 +30°C° 0 mm 1 mps 757 mmHg 22%
    23:00 +29°C° 0 mm 2 mps 757 mmHg 26%

    22 Febrero, Viernes

    Tiempo Temperatura Precipitaciones Viento Presión Humedad
    00:00 +28°C° 0 mm 1 mps 757 mmHg 26%
    01:00 +27°C° 0 mm 1 mps 756 mmHg 26%
    02:00 +26°C° 0 mm 1 mps 756 mmHg 26%
    03:00 +26°C° 0 mm 1 mps 756 mmHg 24%
    04:00 +25°C° 0 mm 1 mps 756 mmHg 22%
    05:00 +25°C° 0 mm 1 mps 756 mmHg 20%
    06:00 +27°C° 0 mm 1 mps 757 mmHg 19%
    07:00 +28°C° 0 mm 2 mps 757 mmHg 17%
    08:00 +30°C° 0 mm 2 mps 758 mmHg 15%
    09:00 +34°C° 0 mm 2 mps 758 mmHg 14%
    10:00 +38°C° 0 mm 3 mps 757 mmHg 13%
    11:00 +42°C° 0 mm 3 mps 757 mmHg 11%
    12:00 +43°C° 0 mm 3 mps 756 mmHg 10%
    13:00 +44°C° 0 mm 3 mps 755 mmHg 10%
    14:00 +45°C° 0 mm 3 mps 754 mmHg 9%
    15:00 +45°C° 0 mm 2 mps 754 mmHg 9%
    16:00 +45°C° 0 mm 2 mps 754 mmHg 9%
    17:00 +43°C° 0 mm 2 mps 754 mmHg 9%
    18:00 +40°C° 0 mm 2 mps 754 mmHg 11%
    19:00 +37°C° 0 mm 2 mps 755 mmHg 12%
    20:00 +34°C° 0 mm 1 mps 756 mmHg 14%
    21:00 +32°C° 0 mm 1 mps 756 mmHg 17%
    22:00 +30°C° 0 mm 1 mps 756 mmHg 20%
    23:00 +29°C° 0 mm 1 mps 756 mmHg 23%

    23 Febrero, Sábado

    Tiempo Temperatura Precipitaciones Viento Presión Humedad
    00:00 +28°C° 0 mm 1 mps 756 mmHg 24%
    01:00 +25°C° 0 mm 0 mps 756 mmHg 25%
    02:00 +24°C° 0 mm 0 mps 755 mmHg 27%
    03:00 +24°C° 0 mm 0 mps 755 mmHg 25%
    04:00 +26°C° 0 mm 1 mps 756 mmHg 23%
    05:00 +26°C° 0 mm 1 mps 756 mmHg 22%
    06:00 +28°C° 0 mm 2 mps 756 mmHg 18%
    07:00 +30°C° 0 mm 3 mps 757 mmHg 14%
    08:00 +33°C° 0 mm 4 mps 757 mmHg 10%
    09:00 +36°C° 0 mm 4 mps 757 mmHg 9%
    10:00 +40°C° 0 mm 4 mps 757 mmHg 8%
    11:00 +43°C° 0 mm 5 mps 756 mmHg 6%
    12:00 +43°C° 0 mm 5 mps 755 mmHg 6%
    13:00 +44°C° 0 mm 4 mps 754 mmHg 6%
    14:00 +45°C° 0 mm 4 mps 753 mmHg 6%
    15:00 +44°C° 0 mm 4 mps 753 mmHg 6%
    16:00 +44°C° 0 mm 4 mps 753 mmHg 7%
    17:00 +43°C° 0 mm 4 mps 753 mmHg 7%
    18:00 +40°C° 0 mm 3 mps 754 mmHg 8%
    19:00 +37°C° 0 mm 3 mps 754 mmHg 10%
    20:00 +35°C° 0 mm 3 mps 755 mmHg 11%
    21:00 +34°C° 0 mm 2 mps 755 mmHg 12%
    22:00 +32°C° 0 mm 2 mps 756 mmHg 13%
    23:00 +31°C° 0 mm 2 mps 756 mmHg 13%
    Mostrar más